Location: Bothwell
(42.3833°S, 147.0000°E)
Time: 21:07:21
(UTC+11:00)

CUBESAT XI-V - Pass Details

Date: 25 September 2022
Orbit: 666 x 689 km, 98.1° (Epoch: 25 November)

Event Time Altitude Azimuth Distance (km) Brightness Sun altitude
Rises 01:37:50 0° 149° (SSE) 3,081 ? -42.1°
Reaches altitude 10° 01:40:53 10° 128° (SE) 2,159 ? -41.8°
Enters shadow 01:41:02 11° 127° (SE) 2,124 ? -41.8°
